Regional Weather Roundup
Issued by NWS

Home | Current Version | Previous Version | Text Only | Print | Product List | Glossary On
Versions: 1 2 3 4 5 6 7 8 9 10 11 12 13 14 15 16 17 18 19 20 21 22 23 24 25 26 27 28 29 30 31 32 33 34 35 36 37 38 39 40 41 42 43 44 45 46 47 48 49 50
000
ASUS43 KLSX 192259
RWRMO

WEATHER SUMMARY FOR MISSOURI
NATIONAL WEATHER SERVICE SPRINGFIELD MO
600 PM CDT FRI SEP 19 2014

NOTE: "FAIR" INDICATES FEW OR NO CLOUDS BELOW 12,000 FEET WITH NO
       SIGNIFICANT WEATHER AND/OR OBSTRUCTIONS TO VISIBILITY.
       CURRENT SKY AND/OR WEATHER CONDITIONS ARE NOT AVAILABLE FOR
       CHILLICOTHE AND FARMINGTON.

MOZ001>031-035>038-043-044-053-054-200000-
...NORTHERN AND WESTERN MISSOURI...

CITY           SKY/WX    TMP DP  RH WIND       PRES   REMARKS
KANSAS CTY INT MOSUNNY   78  69  73 S10       29.94F
KANSAS C DTWN  MOSUNNY   80  68  66 S7        29.93F
LEE`S SUMMIT   SUNNY     78  68  71 S10       29.96F
ST JOSEPH      MOSUNNY   77  68  73 S14       29.91F
KIRKSVILLE     SUNNY     74  62  66 S13       29.98S

$$
MOZ066>068-077>081-088>096-101>105-200000-
...SOUTHWEST MISSOURI...

CITY           SKY/WX    TMP DP  RH WIND       PRES   REMARKS
SPRINGFIELD    MOSUNNY   77  64  64 S6        30.01S
JOPLIN         MOSUNNY   79  68  69 SW9       29.98F

$$
MOZ032>034-039>042-045>050-055>058-069>072-200000-
...CENTRAL MISSOURI...

CITY           SKY/WX    TMP DP  RH WIND       PRES   REMARKS
COLUMBIA       SUNNY     76  63  64 S6        30.00S
JEFFERSON CITY SUNNY     78  61  55 S7        29.99S
ROLLA          HAZE      75  60  59 S8        30.00F VSB 1/4
SEDALIA        MOSUNNY   77  65  66 S9        29.99S
OSAGE BEACH    SUNNY     79  63  57 S5        30.00S

$$
MOZ051-052-059>065-200000-
...EAST CENTRAL MISSOURI...

CITY           SKY/WX    TMP DP  RH WIND       PRES   REMARKS
ST LOUIS INTL  MOSUNNY   78  57  48 S7        30.01S
SPIRIT OF STL  MOSUNNY   76  58  53 SE3       30.00S
ST CHARLES     SUNNY     76  58  53 S8        30.00S

$$
MOZ072>076-082>087-097>100-106>115-200000-
...SOUTH CENTRAL AND SOUTHEAST MISSOURI...

CITY           SKY/WX    TMP DP  RH WIND       PRES   REMARKS
CAPE GIRARDEAU SUNNY     79  58  48 CALM      30.02R
FARMINGTON     SUNNY     75  61  60 S5        30.05S
POPLAR BLUFF   SUNNY     81  60  48 CALM      30.00S
WEST PLAINS    MOSUNNY   77  62  59 SE5       30.04S

$$



USA.gov is the U.S. government's official web portal to all federal, state and local government web resources and services.